SR3WXA Weather Reports


Display with metric or nautical units.
time (UTC)temp
F
wind
direction
speed
MPH
gust
MPH
rain 1hr
in
rain 24hr
in
rain mn
in
humidity
%
barometer
mb
20260502185956 71 0 0.0 0.0 0.00 0.00 0.00 39 1019.0
20260502185919 71 0 0.0 0.0 0.00 0.00 0.00 39 1019.0
20260502185451 71 0 0.0 0.0 0.00 0.00 0.00 38 1019.0
20260502185420 71 0 0.0 0.0 0.00 0.00 0.00 38 1019.0
20260502184954 71 0 0.0 0.0 0.00 0.00 0.00 38 1019.0
20260502184919 71 0 0.0 0.0 0.00 0.00 0.00 38 1019.0
20260502184451 71 0 0.0 0.0 0.00 0.00 0.00 38 1019.1
20260502184419 71 0 0.0 0.0 0.00 0.00 0.00 38 1019.1
20260502183419 72 0 0.0 0.0 0.00 0.00 0.00 37 1019.1
20260502183021 72 0 0.0 0.0 0.00 0.00 0.00 37 1019.0
20260502182919 72 0 0.0 0.0 0.00 0.00 0.00 37 1019.0
20260502182502 72 0 0.0 0.0 0.00 0.00 0.00 36 1018.9
20260502182419 72 0 0.0 0.0 0.00 0.00 0.00 36 1018.9
20260502181919 73 0 0.0 0.0 0.00 0.00 0.00 36 1018.9
20260502181505 73 0 0.0 0.0 0.00 0.00 0.00 36 1018.9
20260502181419 73 0 0.0 0.0 0.00 0.00 0.00 36 1018.9
20260502180919 73 0 0.0 0.0 0.00 0.00 0.00 35 1018.8
20260502180419 73 0 0.0 0.0 0.00 0.00 0.00 35 1018.9
20260502170130 76 0 0.0 0.0 0.00 0.00 0.00 32 1019.1
20260502164050 77 0 0.0 0.0 0.00 0.00 0.00 31 1019.2
20260502163550 76 0 0.0 0.0 0.00 0.00 0.00 30 1019.4
20260502163126 76 0 0.0 0.0 0.00 0.00 0.00 31 1019.4
20260502163050 76 0 0.0 0.0 0.00 0.00 0.00 31 1019.4
20260502162550 76 0 0.0 0.0 0.00 0.00 0.00 30 1019.5
20260502162051 76 0 0.0 0.0 0.00 0.00 0.00 30 1019.5
20260502161621 77 0 0.0 0.0 0.00 0.00 0.00 30 1019.6
20260502161550 77 0 0.0 0.0 0.00 0.00 0.00 30 1019.6
20260502161133 76 0 0.0 0.0 0.00 0.00 0.00 31 1019.6
20260502161050 76 0 0.0 0.0 0.00 0.00 0.00 31 1019.6
20260502160550 76 0 0.0 0.0 0.00 0.00 0.00 31 1019.7
20260502160128 77 0 0.0 0.0 0.00 0.00 0.00 31 1019.8
20260502152050 77 0 0.0 0.0 0.00 0.00 0.00 31 1020.3
20260502151153 77 0 0.0 0.0 0.00 0.00 0.00 31 1020.4
20260502150741 77 0 0.0 0.0 0.00 0.00 0.00 33 1020.6
20260502150653 77 0 0.0 0.0 0.00 0.00 0.00 33 1020.6
20260502150153 76 0 0.0 0.0 0.00 0.00 0.00 34 1020.5
20260502130606 75 0 0.0 0.0 0.00 0.00 0.00 36 1022.2
20260502130106 76 0 0.0 0.0 0.00 0.00 0.00 35 1022.3
20260502123607 74 0 0.0 0.0 0.00 0.00 0.00 36 1022.6
20260502122350 75 0 0.0 0.0 0.00 0.00 0.00 36 1022.8
20260502121927 74 0 0.0 0.0 0.00 0.00 0.00 36 1022.8
20260502121851 74 0 0.0 0.0 0.00 0.00 0.00 36 1022.8
20260502121422 75 0 0.0 0.0 0.00 0.00 0.00 36 1022.9
20260502121350 75 0 0.0 0.0 0.00 0.00 0.00 36 1022.9
20260502120851 75 0 0.0 0.0 0.00 0.00 0.00 35 1023.0
20260502115703 75 0 0.0 0.0 0.00 0.00 0.00 36 1023.1
20260502115237 75 0 0.0 0.0 0.00 0.00 0.00 36 1023.2
20260502115204 75 0 0.0 0.0 0.00 0.00 0.00 36 1023.2
20260502114703 74 0 0.0 0.0 0.00 0.00 0.00 37 1023.2
20260502114203 75 0 0.0 0.0 0.00 0.00 0.00 36 1023.3
20260502113831 74 0 0.0 0.0 0.00 0.00 0.00 37 1023.4
20260502113703 74 0 0.0 0.0 0.00 0.00 0.00 37 1023.4
20260502113203 74 0 0.0 0.0 0.00 0.00 0.00 37 1023.4
20260502112910 74 0 0.0 0.0 0.00 0.00 0.00 37 1023.5
20260502112703 74 0 0.0 0.0 0.00 0.00 0.00 37 1023.5
20260502112203 74 0 0.0 0.0 0.00 0.00 0.00 37 1023.5
20260502111541 75 0 0.0 0.0 0.00 0.00 0.00 37 1023.6
20260502111509 75 0 0.0 0.0 0.00 0.00 0.00 37 1023.6
20260502111042 74 0 0.0 0.0 0.00 0.00 0.00 36 1023.6
20260502111009 74 0 0.0 0.0 0.00 0.00 0.00 36 1023.6
20260502110509 74 0 0.0 0.0 0.00 0.00 0.00 37 1023.6
20260502110040 74 0 0.0 0.0 0.00 0.00 0.00 38 1023.6
20260502110009 74 0 0.0 0.0 0.00 0.00 0.00 38 1023.6
20260502105541 74 0 0.0 0.0 0.00 0.00 0.00 39 1023.7
20260502105509 74 0 0.0 0.0 0.00 0.00 0.00 39 1023.7
20260502105118 73 0 0.0 0.0 0.00 0.00 0.00 39 1023.8
20260502105009 73 0 0.0 0.0 0.00 0.00 0.00 39 1023.8
20260502104509 73 0 0.0 0.0 0.00 0.00 0.00 39 1023.9
20260502104009 73 0 0.0 0.0 0.00 0.00 0.00 40 1024.0
20260502103509 73 0 0.0 0.0 0.00 0.00 0.00 39 1024.0
20260502103058 73 0 0.0 0.0 0.00 0.00 0.00 39 1024.0
20260502103009 73 0 0.0 0.0 0.00 0.00 0.00 39 1024.0
20260502102602 73 0 0.0 0.0 0.00 0.00 0.00 39 1024.1
20260502102509 73 0 0.0 0.0 0.00 0.00 0.00 39 1024.1
20260502102041 73 0 0.0 0.0 0.00 0.00 0.00 38 1024.2
20260502102009 73 0 0.0 0.0 0.00 0.00 0.00 38 1024.2
20260502101509 73 0 0.0 0.0 0.00 0.00 0.00 38 1024.2
20260502101009 73 0 0.0 0.0 0.00 0.00 0.00 38 1024.2
20260502100510 73 0 0.0 0.0 0.00 0.00 0.00 37 1024.3
20260502091509 72 0 0.0 0.0 0.00 0.00 0.00 42 1024.7
20260502091008 72 0 0.0 0.0 0.00 0.00 0.00 42 1024.8
20260502090548 71 0 0.0 0.0 0.00 0.00 0.00 41 1024.8
20260502090509 71 0 0.0 0.0 0.00 0.00 0.00 41 1024.8
20260502071123 66 0 0.0 0.0 0.00 0.00 0.00 53 1025.3
20260502071049 66 0 0.0 0.0 0.00 0.00 0.00 53 1025.3
20260502070549 65 0 0.0 0.0 0.00 0.00 0.00 54 1025.3
20260502070049 64 0 0.0 0.0 0.00 0.00 0.00 54 1025.3
20260502065633 64 0 0.0 0.0 0.00 0.00 0.00 54 1025.4
20260502065549 64 0 0.0 0.0 0.00 0.00 0.00 54 1025.4
20260502065049 63 0 0.0 0.0 0.00 0.00 0.00 55 1025.4
20260502064144 62 0 0.0 0.0 0.00 0.00 0.00 56 1025.4
20260502064059 62 0 0.0 0.0 0.00 0.00 0.00 56 1025.4
20260502063630 62 0 0.0 0.0 0.00 0.00 0.00 56 1025.4
20260502063559 62 0 0.0 0.0 0.00 0.00 0.00 56 1025.4
20260502063059 62 0 0.0 0.0 0.00 0.00 0.00 58 1025.5
20260502062630 61 0 0.0 0.0 0.00 0.00 0.00 58 1025.5
20260502062559 61 0 0.0 0.0 0.00 0.00 0.00 58 1025.5
20260502062100 61 0 0.0 0.0 0.00 0.00 0.00 59 1025.6
20260502061630 60 0 0.0 0.0 0.00 0.00 0.00 59 1025.5
20260502061559 60 0 0.0 0.0 0.00 0.00 0.00 59 1025.5
20260502061059 60 0 0.0 0.0 0.00 0.00 0.00 61 1025.6
20260502060642 59 0 0.0 0.0 0.00 0.00 0.00 61 1025.6
20260502060600 59 0 0.0 0.0 0.00 0.00 0.00 61 1025.6
20260502060059 59 0 0.0 0.0 0.00 0.00 0.00 62 1025.5
20260502055631 58 0 0.0 0.0 0.00 0.00 0.00 63 1025.5
20260502055559 58 0 0.0 0.0 0.00 0.00 0.00 63 1025.5
20260502054803 58 0 0.0 0.0 0.00 0.00 0.00 64 1025.5
20260502054303 58 0 0.0 0.0 0.00 0.00 0.00 65 1025.6
20260502053803 57 0 0.0 0.0 0.00 0.00 0.00 66 1025.6
20260502052804 57 0 0.0 0.0 0.00 0.00 0.00 69 1025.6
20260502052306 56 0 0.0 0.0 0.00 0.00 0.00 71 1025.5
20260502051803 56 0 0.0 0.0 0.00 0.00 0.00 73 1025.5
20260502051343 55 0 0.0 0.0 0.00 0.00 0.00 75 1025.6
20260502051303 55 0 0.0 0.0 0.00 0.00 0.00 75 1025.6
20260502045937 53 0 0.0 0.0 0.00 0.00 0.00 80 1025.5
20260502045901 53 0 0.0 0.0 0.00 0.00 0.00 80 1025.5
20260502045432 52 0 0.0 0.0 0.00 0.00 0.00 82 1025.5
20260502045401 52 0 0.0 0.0 0.00 0.00 0.00 82 1025.5
20260502044901 51 0 0.0 0.0 0.00 0.00 0.00 84 1025.6
20260502044444 50 0 0.0 0.0 0.00 0.00 0.00 84 1025.6
20260502044401 50 0 0.0 0.0 0.00 0.00 0.00 84 1025.6
20260502043434 49 0 0.0 0.0 0.00 0.00 0.00 86 1025.5
20260502043401 49 0 0.0 0.0 0.00 0.00 0.00 86 1025.5
20260502042935 49 0 0.0 0.0 0.00 0.00 0.00 87 1025.5
20260502042901 49 0 0.0 0.0 0.00 0.00 0.00 87 1025.5
20260502042450 48 0 0.0 0.0 0.00 0.00 0.00 87 1025.5
20260502042401 48 0 0.0 0.0 0.00 0.00 0.00 87 1025.5
20260502041941 48 0 0.0 0.0 0.00 0.00 0.00 86 1025.5
20260502041902 48 0 0.0 0.0 0.00 0.00 0.00 86 1025.5
20260502040918 47 0 0.0 0.0 0.00 0.00 0.00 86 1025.5
20260502040419 47 0 0.0 0.0 0.00 0.00 0.00 85 1025.5
20260502035919 47 0 0.0 0.0 0.00 0.00 0.00 85 1025.5
20260502035450 47 0 0.0 0.0 0.00 0.00 0.00 84 1025.5
20260502035418 47 0 0.0 0.0 0.00 0.00 0.00 84 1025.5
20260502034918 47 0 0.0 0.0 0.00 0.00 0.00 84 1025.5
20260502034418 47 0 0.0 0.0 0.00 0.00 0.00 83 1025.5
20260502033657 48 0 0.0 0.0 0.00 0.00 0.00 81 1025.5
20260502033626 48 0 0.0 0.0 0.00 0.00 0.00 81 1025.5
20260502033212 49 0 0.0 0.0 0.00 0.00 0.00 80 1025.6
20260502033126 49 0 0.0 0.0 0.00 0.00 0.00 80 1025.6
20260502032758 49 0 0.0 0.0 0.00 0.00 0.00 80 1025.5
20260502032626 49 0 0.0 0.0 0.00 0.00 0.00 80 1025.5
20260502031626 49 0 0.0 0.0 0.00 0.00 0.00 80 1025.6
20260502031212 50 0 0.0 0.0 0.00 0.00 0.00 81 1025.5
20260502031126 50 0 0.0 0.0 0.00 0.00 0.00 81 1025.5
20260502030659 49 0 0.0 0.0 0.00 0.00 0.00 81 1025.6
20260502030626 49 0 0.0 0.0 0.00 0.00 0.00 81 1025.6
20260502030126 49 0 0.0 0.0 0.00 0.00 0.00 82 1025.5
20260502025743 49 0 0.0 0.0 0.00 0.00 0.00 82 1025.6
20260502025629 49 0 0.0 0.0 0.00 0.00 0.00 82 1025.6
20260502024836 49 0 0.0 0.0 0.00 0.00 0.00 82 1025.6
20260502024804 49 0 0.0 0.0 0.00 0.00 0.00 82 1025.6
20260502024335 49 0 0.0 0.0 0.00 0.00 0.00 81 1025.6
20260502024304 49 0 0.0 0.0 0.00 0.00 0.00 81 1025.6
20260502023837 49 0 0.0 0.0 0.00 0.00 0.00 82 1025.6
20260502023804 49 0 0.0 0.0 0.00 0.00 0.00 82 1025.6
20260502022950 50 0 0.0 0.0 0.00 0.00 0.00 82 1025.6
20260502022916 50 0 0.0 0.0 0.00 0.00 0.00 82 1025.6
20260502022450 49 0 0.0 0.0 0.00 0.00 0.00 83 1025.7
20260502022416 49 0 0.0 0.0 0.00 0.00 0.00 83 1025.7
20260502021916 49 0 0.0 0.0 0.00 0.00 0.00 84 1025.6
20260502021416 49 0 0.0 0.0 0.00 0.00 0.00 84 1025.7
20260502020916 49 0 0.0 0.0 0.00 0.00 0.00 84 1025.6
20260502020416 49 0 0.0 0.0 0.00 0.00 0.00 84 1025.6
20260502015916 49 0 0.0 0.0 0.00 0.00 0.00 84 1025.7
20260502015416 49 0 0.0 0.0 0.00 0.00 0.00 84 1025.7
20260502013416 49 0 0.0 0.0 0.00 0.00 0.00 81 1025.7
20260502012916 50 0 0.0 0.0 0.00 0.00 0.00 81 1025.7
20260502012416 50 0 0.0 0.0 0.00 0.00 0.00 81 1025.8
20260502011916 50 0 0.0 0.0 0.00 0.00 0.00 81 1025.8
20260502011320 50 0 0.0 0.0 0.00 0.00 0.00 80 1025.8
20260502011240 50 0 0.0 0.0 0.00 0.00 0.00 80 1025.8
20260502010740 50 0 0.0 0.0 0.00 0.00 0.00 79 1025.8
20260502010323 50 0 0.0 0.0 0.00 0.00 0.00 79 1025.9
20260502010241 50 0 0.0 0.0 0.00 0.00 0.00 79 1025.9
20260502005831 51 0 0.0 0.0 0.00 0.00 0.00 78 1025.9
20260502005740 51 0 0.0 0.0 0.00 0.00 0.00 78 1025.9
20260502005323 51 0 0.0 0.0 0.00 0.00 0.00 78 1025.9
20260502005240 51 0 0.0 0.0 0.00 0.00 0.00 78 1025.9
20260502004818 51 0 0.0 0.0 0.00 0.00 0.00 77 1025.9
20260502004740 51 0 0.0 0.0 0.00 0.00 0.00 77 1025.9
20260502004315 51 0 0.0 0.0 0.00 0.00 0.00 77 1026.0
20260502004240 51 0 0.0 0.0 0.00 0.00 0.00 77 1026.0
20260502003831 51 0 0.0 0.0 0.00 0.00 0.00 77 1026.0
20260502003740 51 0 0.0 0.0 0.00 0.00 0.00 77 1026.0
20260502003318 51 0 0.0 0.0 0.00 0.00 0.00 77 1026.0
20260502003240 51 0 0.0 0.0 0.00 0.00 0.00 77 1026.0
20260502002740 51 0 0.0 0.0 0.00 0.00 0.00 77 1026.0
20260502002323 52 0 0.0 0.0 0.00 0.00 0.00 76 1026.1
20260502002240 52 0 0.0 0.0 0.00 0.00 0.00 76 1026.1
20260502001740 52 0 0.0 0.0 0.00 0.00 0.00 76 1026.0
20260502001320 52 0 0.0 0.0 0.00 0.00 0.00 76 1026.1
20260502001240 52 0 0.0 0.0 0.00 0.00 0.00 76 1026.1
20260502000919 52 0 0.0 0.0 0.00 0.00 0.00 75 1026.1
20260502000740 52 0 0.0 0.0 0.00 0.00 0.00 75 1026.1
20260502000320 52 0 0.0 0.0 0.00 0.00 0.00 74 1026.1
20260502000240 52 0 0.0 0.0 0.00 0.00 0.00 74 1026.1
20260501235822 52 0 0.0 0.0 0.00 0.00 0.00 72 1026.1
20260501235740 52 0 0.0 0.0 0.00 0.00 0.00 72 1026.1
20260501235312 53 0 0.0 0.0 0.00 0.00 0.00 71 1026.2
20260501235240 53 0 0.0 0.0 0.00 0.00 0.00 71 1026.2
20260501234846 53 0 0.0 0.0 0.00 0.00 0.00 71 1026.1
20260501234812 53 0 0.0 0.0 0.00 0.00 0.00 71 1026.1
20260501234740 53 0 0.0 0.0 0.00 0.00 0.00 71 1026.1
20260501233811 54 0 0.0 0.0 0.00 0.00 0.00 69 1026.1
20260501233740 54 0 0.0 0.0 0.00 0.00 0.00 69 1026.1
20260501233314 54 0 0.0 0.0 0.00 0.00 0.00 68 1026.1
20260501233241 54 0 0.0 0.0 0.00 0.00 0.00 68 1026.1
20260501232844 54 0 0.0 0.0 0.00 0.00 0.00 68 1026.1
20260501232740 54 0 0.0 0.0 0.00 0.00 0.00 68 1026.1
20260501232318 55 0 0.0 0.0 0.00 0.00 0.00 67 1026.2
20260501232240 55 0 0.0 0.0 0.00 0.00 0.00 67 1026.2
20260501231317 55 0 0.0 0.0 0.00 0.00 0.00 64 1026.3
20260501231240 55 0 0.0 0.0 0.00 0.00 0.00 64 1026.3
20260501230830 56 0 0.0 0.0 0.00 0.00 0.00 63 1026.3
20260501230740 56 0 0.0 0.0 0.00 0.00 0.00 63 1026.3
20260501230240 56 0 0.0 0.0 0.00 0.00 0.00 63 1026.2
20260501225821 56 0 0.0 0.0 0.00 0.00 0.00 63 1026.2
20260501225740 56 0 0.0 0.0 0.00 0.00 0.00 63 1026.2
20260501225324 56 0 0.0 0.0 0.00 0.00 0.00 63 1026.3
20260501225240 56 0 0.0 0.0 0.00 0.00 0.00 63 1026.3
20260501224854 56 0 0.0 0.0 0.00 0.00 0.00 63 1026.3
20260501224740 56 0 0.0 0.0 0.00 0.00 0.00 63 1026.3
20260501224240 56 0 0.0 0.0 0.00 0.00 0.00 63 1026.3
20260501223821 56 0 0.0 0.0 0.00 0.00 0.00 62 1026.3
20260501223740 56 0 0.0 0.0 0.00 0.00 0.00 62 1026.3
20260501223240 56 0 0.0 0.0 0.00 0.00 0.00 62 1026.3
20260501222740 57 0 0.0 0.0 0.00 0.00 0.00 61 1026.3
20260501222240 57 0 0.0 0.0 0.00 0.00 0.00 60 1026.3
20260501221918 57 0 0.0 0.0 0.00 0.00 0.00 61 1026.3
20260501221722 57 0 0.0 0.0 0.00 0.00 0.00 61 1026.3
20260501221222 57 0 0.0 0.0 0.00 0.00 0.00 61 1026.4
20260501220829 57 0 0.0 0.0 0.00 0.00 0.00 61 1026.3
20260501220722 57 0 0.0 0.0 0.00 0.00 0.00 61 1026.3
20260501220255 57 0 0.0 0.0 0.00 0.00 0.00 61 1026.3
20260501220222 57 0 0.0 0.0 0.00 0.00 0.00 61 1026.3
20260501215819 57 0 0.0 0.0 0.00 0.00 0.00 61 1026.4
20260501215722 57 0 0.0 0.0 0.00 0.00 0.00 61 1026.4
20260501215258 57 0 0.0 0.0 0.00 0.00 0.00 61 1026.4
20260501215222 57 0 0.0 0.0 0.00 0.00 0.00 61 1026.4
20260501214837 57 0 0.0 0.0 0.00 0.00 0.00 61 1026.4
20260501214722 57 0 0.0 0.0 0.00 0.00 0.00 61 1026.4
20260501214222 56 0 0.0 0.0 0.00 0.00 0.00 62 1026.4
20260501213722 56 0 0.0 0.0 0.00 0.00 0.00 62 1026.4
20260501213222 56 0 0.0 0.0 0.00 0.00 0.00 63 1026.3
20260501212413 57 0 0.0 0.0 0.00 0.00 0.00 63 1026.3
20260501212342 57 0 0.0 0.0 0.00 0.00 0.00 63 1026.3
20260501211926 58 0 0.0 0.0 0.00 0.00 0.00 61 1026.3
20260501211842 58 0 0.0 0.0 0.00 0.00 0.00 61 1026.3
20260501211417 59 0 0.0 0.0 0.00 0.00 0.00 59 1026.2
20260501211342 59 0 0.0 0.0 0.00 0.00 0.00 59 1026.2
20260501210915 59 0 0.0 0.0 0.00 0.00 0.00 58 1026.2
20260501210842 59 0 0.0 0.0 0.00 0.00 0.00 58 1026.2
20260501210342 60 0 0.0 0.0 0.00 0.00 0.00 56 1026.2
20260501205917 61 0 0.0 0.0 0.00 0.00 0.00 54 1026.2
20260501205842 61 0 0.0 0.0 0.00 0.00 0.00 54 1026.2
20260501205342 61 0 0.0 0.0 0.00 0.00 0.00 53 1026.1
20260501204921 61 0 0.0 0.0 0.00 0.00 0.00 53 1026.1
20260501204842 61 0 0.0 0.0 0.00 0.00 0.00 53 1026.1
20260501204342 62 0 0.0 0.0 0.00 0.00 0.00 52 1026.1
20260501203919 62 0 0.0 0.0 0.00 0.00 0.00 50 1026.1
20260501203842 62 0 0.0 0.0 0.00 0.00 0.00 50 1026.1
20260501203420 63 0 0.0 0.0 0.00 0.00 0.00 49 1026.1
20260501203342 63 0 0.0 0.0 0.00 0.00 0.00 49 1026.1
20260501202842 63 0 0.0 0.0 0.00 0.00 0.00 49 1026.1
20260501202342 63 0 0.0 0.0 0.00 0.00 0.00 49 1026.1
20260501201914 63 0 0.0 0.0 0.00 0.00 0.00 48 1026.1
20260501201842 63 0 0.0 0.0 0.00 0.00 0.00 48 1026.1
20260501201414 63 0 0.0 0.0 0.00 0.00 0.00 48 1026.0
20260501201342 63 0 0.0 0.0 0.00 0.00 0.00 48 1026.0
20260501200917 64 0 0.0 0.0 0.00 0.00 0.00 47 1026.1
20260501200843 64 0 0.0 0.0 0.00 0.00 0.00 47 1026.1
20260501200420 64 0 0.0 0.0 0.00 0.00 0.00 47 1026.1
20260501200342 64 0 0.0 0.0 0.00 0.00 0.00 47 1026.1
20260501195842 64 0 0.0 0.0 0.00 0.00 0.00 47 1026.1
20260501195342 64 0 0.0 0.0 0.00 0.00 0.00 46 1026.1
20260501194916 65 0 0.0 0.0 0.00 0.00 0.00 45 1026.1
20260501194842 65 0 0.0 0.0 0.00 0.00 0.00 45 1026.1
20260501194342 65 0 0.0 0.0 0.00 0.00 0.00 45 1026.1
20260501193918 66 0 0.0 0.0 0.00 0.00 0.00 44 1026.1
20260501193842 66 0 0.0 0.0 0.00 0.00 0.00 44 1026.1
20260501193420 66 0 0.0 0.0 0.00 0.00 0.00 43 1026.1
20260501193342 66 0 0.0 0.0 0.00 0.00 0.00 43 1026.1
20260501192842 67 0 0.0 0.0 0.00 0.00 0.00 42 1026.1
20260501192342 67 0 0.0 0.0 0.00 0.00 0.00 41 1026.0
20260501191914 67 0 0.0 0.0 0.00 0.00 0.00 41 1026.1
20260501191842 67 0 0.0 0.0 0.00 0.00 0.00 41 1026.1
20260501191342 67 0 0.0 0.0 0.00 0.00 0.00 41 1026.0
20260501190914 68 0 0.0 0.0 0.00 0.00 0.00 40 1026.0
20260501190842 68 0 0.0 0.0 0.00 0.00 0.00 40 1026.0